Tracking 29528 objects as of 14-Sep-2024
HD Live streaming from Space Station
objects crossing your sky now

IRIDIUM 171

Track IRIDIUM 171 now!
10-day predictions
IRIDIUM 171 is classified as:


NORAD ID: 43929
Int'l Code: 2019-002H
Perigee: 783.1 km
Apogee: 786.5 km
Inclination: 86.4 °
Period: 100.4 minutes
Semi major axis: 7155 km
RCS: Unknown
Launch date: January 11, 2019
Source: United States (US)
Launch site: AIR FORCE WESTERN TEST RANGE (AFWTR)
Your satellite tracking list
Your tracking list is empty




NASA's NSSDC Master Catalog

Two Line Element Set (TLE):
1 43929U 19002H   24257.01188113  .00000529  00000-0  18175-3 0  9993
2 43929  86.3918 262.1453 0002421  97.6784 262.4687 14.34218024296918
Source of the keplerian elements: AFSPC